Time,TemperatureF,DewpointF,PressureIn,WindDirection,WindDirectionDegrees,WindSpeedMPH,WindSpeedGustMPH,Humidity,HourlyPrecipIn,Conditions,Clouds,dailyrainin,SoftwareType,DateUTC
2013-08-07 00:01:00,76.0,70.0,-100.00,SSW,210,6.0,9.0,80,0.00,,,0.00,,2013-08-07 00:01:00,
2013-08-07 00:11:00,76.0,70.0,-100.00,WSW,245,7.0,13.0,81,0.00,,,0.00,,2013-08-07 00:11:00,
2013-08-07 00:21:00,75.0,70.0,-100.00,SSW,210,9.0,14.0,82,0.00,,,0.00,,2013-08-07 00:21:00,
2013-08-07 01:52:00,61.0,61.0,-100.00,South,190,7.0,10.0,99,0.00,,,0.00,,2013-08-07 01:52:00,
2013-08-07 03:32:00,60.0,59.0,-100.00,NW,305,7.0,10.0,99,0.00,,,0.00,,2013-08-07 03:32:00,
2013-08-07 03:43:00,60.0,59.0,-100.00,NW,305,7.0,10.0,99,0.00,,,0.00,,2013-08-07 03:43:00,
2013-08-07 04:21:00,60.0,59.0,-100.00,WNW,300,6.0,8.0,99,0.00,,,0.00,,2013-08-07 04:21:00,
2013-08-07 04:43:00,60.0,59.0,-100.00,WNW,285,2.0,7.0,99,0.00,,,0.00,,2013-08-07 04:43:00,
2013-08-07 05:02:00,60.0,59.0,-100.00,NW,315,4.0,6.0,99,0.00,,,0.00,,2013-08-07 05:02:00,
2013-08-07 05:10:00,60.0,59.0,-100.00,WNW,300,5.0,6.0,99,0.00,,,0.00,,2013-08-07 05:10:00,
2013-08-07 05:32:00,60.0,59.0,-100.00,WNW,300,5.0,6.0,99,0.00,,,0.00,,2013-08-07 05:32:00,
2013-08-07 05:43:00,60.0,59.0,-100.00,WNW,300,5.0,6.0,99,0.00,,,0.00,,2013-08-07 05:43:00,
2013-08-07 05:52:00,60.0,59.0,-100.00,WNW,300,5.0,6.0,99,0.00,,,0.00,,2013-08-07 05:52:00,
2013-08-07 06:02:00,60.0,59.0,-100.00,WNW,300,5.0,6.0,99,0.00,,,0.00,,2013-08-07 06:02:00,
2013-08-07 07:53:00,61.0,61.0,-100.00,NW,325,5.0,7.0,99,0.00,,,0.00,,2013-08-07 07:53:00,
2013-08-07 08:01:00,61.0,61.0,-100.00,NW,325,5.0,7.0,99,0.00,,,0.00,,2013-08-07 08:01:00,
2013-08-07 08:11:00,61.0,61.0,-100.00,NW,325,5.0,7.0,99,0.00,,,0.00,,2013-08-07 08:11:00,
2013-08-07 08:32:00,61.0,61.0,-100.00,NW,320,9.0,11.0,99,0.00,,,0.00,,2013-08-07 08:32:00,
2013-08-07 08:44:00,61.0,61.0,-100.00,NW,320,9.0,11.0,99,0.00,,,0.00,,2013-08-07 08:44:00,
2013-08-07 08:53:00,61.0,61.0,-100.00,NW,320,9.0,11.0,99,0.00,,,0.00,,2013-08-07 08:53:00,
2013-08-07 09:02:00,61.0,61.0,-100.00,NW,320,9.0,11.0,99,0.00,,,0.00,,2013-08-07 09:02:00,
2013-08-07 11:20:00,58.0,57.0,-100.00,North,350,7.0,12.0,99,0.00,,,0.00,,2013-08-07 11:20:00,
2013-08-07 11:53:00,58.0,57.0,-100.00,North,350,7.0,12.0,99,0.00,,,0.00,,2013-08-07 11:53:00,
2013-08-07 12:02:00,58.0,57.0,-100.00,North,350,7.0,12.0,99,0.00,,,0.00,,2013-08-07 12:02:00,
2013-08-07 12:11:00,58.0,57.0,-100.00,North,350,7.0,12.0,99,0.00,,,0.00,,2013-08-07 12:11:00,
2013-08-07 13:22:00,59.0,57.0,-100.00,North,0,4.0,14.0,95,0.00,,,0.00,,2013-08-07 13:22:00,
2013-08-07 13:32:00,59.0,57.0,-100.00,North,0,4.0,14.0,95,0.00,,,0.00,,2013-08-07 13:32:00,
2013-08-07 13:44:00,59.0,57.0,-100.00,North,0,4.0,14.0,95,0.00,,,0.00,,2013-08-07 13:44:00,
2013-08-07 14:22:00,62.0,55.0,-100.00,North,0,7.0,12.0,80,0.00,,,0.00,,2013-08-07 14:22:00,
2013-08-07 15:12:00,64.0,54.0,-100.00,North,0,7.0,13.0,67,0.00,,,0.00,,2013-08-07 15:12:00,
2013-08-07 15:22:00,65.0,52.0,-100.00,North,350,9.0,17.0,65,0.00,,,0.00,,2013-08-07 15:22:00,
2013-08-07 16:02:00,67.0,52.0,-100.00,NNE,15,7.0,14.0,57,0.00,,,0.00,,2013-08-07 16:02:00,
2013-08-07 16:22:00,67.0,50.0,-100.00,North,0,10.0,14.0,54,0.00,,,0.00,,2013-08-07 16:22:00,
2013-08-07 17:01:00,69.0,50.0,-100.00,NNE,30,6.0,14.0,52,0.00,,,0.00,,2013-08-07 17:01:00,
2013-08-07 17:11:00,70.0,52.0,-100.00,NW,325,4.0,7.0,52,0.00,,,0.00,,2013-08-07 17:11:00,
2013-08-07 17:22:00,70.0,50.0,-100.00,North,0,7.0,12.0,50,0.00,,,0.00,,2013-08-07 17:22:00,
2013-08-07 18:22:00,71.0,50.0,-100.00,North,0,7.0,12.0,46,0.00,,,0.00,,2013-08-07 18:22:00,
2013-08-07 18:52:00,72.0,48.0,-100.00,NNE,30,6.0,9.0,43,0.00,,,0.00,,2013-08-07 18:52:00,
2013-08-07 19:11:00,73.0,50.0,-100.00,North,350,6.0,14.0,44,0.00,,,0.00,,2013-08-07 19:11:00,
2013-08-07 19:22:00,74.0,50.0,-100.00,West,275,2.0,9.0,43,0.00,,,0.00,,2013-08-07 19:22:00,
2013-08-07 20:22:00,74.0,50.0,-100.00,North,0,6.0,12.0,43,0.00,,,0.00,,2013-08-07 20:22:00,
2013-08-07 20:52:00,72.0,50.0,-100.00,NW,325,6.0,8.0,44,0.00,,,0.00,,2013-08-07 20:52:00,
2013-08-07 21:11:00,74.0,50.0,-100.00,North,0,4.0,8.0,42,0.00,,,0.00,,2013-08-07 21:11:00,
2013-08-07 21:22:00,75.0,50.0,-100.00,North,0,5.0,13.0,42,0.00,,,0.00,,2013-08-07 21:22:00,
2013-08-07 22:01:00,75.0,48.0,-100.00,North,0,4.0,9.0,40,0.00,,,0.00,,2013-08-07 22:01:00,
2013-08-07 22:22:00,75.0,48.0,-100.00,NNE,15,3.0,6.0,40,0.00,,,0.00,,2013-08-07 22:22:00,
2013-08-07 23:01:00,74.0,48.0,-100.00,NW,325,5.0,8.0,41,0.00,,,0.00,,2013-08-07 23:01:00,
2013-08-07 23:22:00,73.0,50.0,-100.00,NNW,345,2.0,6.0,44,0.00,,,0.00,,2013-08-07 23:22:00,
2013-08-07 23:52:00,73.0,50.0,-100.00,North,10,0.0,3.0,45,0.00,,,0.00,,2013-08-07 23:52:00,